Location: Sabalos
(43.2860°N, 0.1414°E)
Time: 10:54:22
(UTC+00:00)

Cosmos 2278 Rocket - Pass Details

Date: 05 July 2020
Orbit: 841 x 846 km, 71.0° (Epoch: 05 August)

Event Time Altitude Azimuth Distance (km) Brightness Sun altitude
Rises 22:45:04 0° 332° (NNW) 3,414 6.8 -21.6°
Reaches altitude 10° 22:47:32 10° 330° (NNW) 2,474 5.7 -21.7°
Maximum altitude 22:53:09 67° 250° (WSW) 916 2.3 -22.1°
Enters shadow 22:54:45 46° 187° (S) 1,123 2.4 -22.1°
